Flag for U.S.A. Weather past 2 weeks in Medford, Oregon, U.S.A.

Now
54 °F

Clear.


Feels Like: 54 °F
Forecast: 54 / 84 °F
Wind: No wind

Location: Rogue Valley International Airport

Current Time: May 28, 2015 at 6:00:12 AM

Latest Report: May 28, 2015 at 4:53 AM


Visibility: 10 mi

Pressure: 30.01 "Hg

Humidity: 77%

Dew point: 47 °F

Location of MedfordLocation

Historic Weather in Medford — Graph

°F

Medford temperature yesterday

Maximum temperature yesterday: 85 °F (at 4:53 PM)
Minimum temperature yesterday: 50 °F (at 3:53 AM)
Average temperature yesterday: 68 °F

Past Weeks' High & Low Weather Summary

 TemperatureHumidityPressure
High85 °F (May 27, 4:53 PM)90% (May 14, 9:53 PM)30.15 "Hg (May 14, 9:53 PM)
Low45 °F (May 14, 4:53 AM)18% (May 25, 5:53 PM)29.72 "Hg (May 14, 4:53 PM)
Average61 °F63%29.95 "Hg
* Reported May 13 4:53 AM — May 28 4:53 AM, Medford, Weather by CustomWeather, © 2015

Note: Actual official high and low records may vary slightly from our data, if they occured in-between our weather recording intervals... More about our weather records

Advertising

Medford weather history for previous 24 hours

 ConditionsComfort  
Time TempWeatherWind HumidityBarometerVisibility
4:53 AM
Thu, May 28
54 °FClear.No wind77%30.01 "Hg10 mi
3:53 AM56 °FClear.No wind75%30.00 "Hg10 mi
2:53 AM56 °FClear.3 mph75%30.00 "Hg10 mi
1:53 AM57 °FClear.No wind69%30.00 "Hg10 mi
12:53 AM63 °FClear.3 mph56%29.99 "Hg10 mi
11:53 PM
Wed, May 27
64 °FClear.5 mph52%29.99 "Hg10 mi
10:53 PM66 °FClear.6 mph49%29.98 "Hg10 mi
9:53 PM72 °FClear.6 mph38%29.96 "Hg10 mi
8:53 PM75 °FSunny.8 mph32%29.93 "Hg10 mi
7:53 PM79 °FSunny.13 mph26%29.91 "Hg10 mi
6:53 PM84 °FSunny.13 mph24%29.89 "Hg10 mi
5:53 PM85 °FPassing clouds.10 mph23%29.88 "Hg10 mi
4:53 PM85 °FPassing clouds.7 mph20%29.89 "Hg10 mi
3:53 PM84 °FPassing clouds.7 mph19%29.91 "Hg10 mi
2:53 PM83 °FSunny.7 mph21%29.93 "Hg10 mi
1:53 PM79 °FPassing clouds.6 mph26%29.94 "Hg10 mi
12:53 PM76 °FSunny.6 mph32%29.97 "Hg10 mi
11:53 AM74 °FSunny.3 mph37%29.98 "Hg10 mi
10:53 AM69 °FSunny.No wind44%29.99 "Hg10 mi
9:53 AM65 °FSunny.3 mph49%30.01 "Hg10 mi
8:53 AM60 °FSunny.No wind56%30.03 "Hg10 mi
7:53 AM56 °FSunny.No wind65%30.03 "Hg10 mi
6:53 AM52 °FSunny.No wind75%30.02 "Hg10 mi
Weather by CustomWeather, © 2015

See weather overviewHow to use our weather pages